[Iaude] MPEC D74: 2024 DW [a=2.37,e=0.69,i=1.2,H=27.0]

mpec at cfa.harvard.edu mpec at cfa.harvard.edu
Mon Feb 19 16:52:54 EST 2024


M.P.E.C. 2024-D74                             Issued 2024 February 19, 21:50 UT

     The Minor Planet Electronic Circulars contain information on unusual
         minor planets, routine data on comets and natural satellites,
         and occasional editorial announcements.  They are published
    on behalf of Division F of the International Astronomical Union by the
          Minor Planet Center, Smithsonian Astrophysical Observatory,
                          Cambridge, MA 02138, U.S.A.
			  
             Prepared using the Tamkin Foundation Computer Network

                              MPC at CFA.HARVARD.EDU
            URL https://www.minorplanetcenter.net/    ISSN 1523-6714

                                    2024 DW                                     


Observations:
     K24D00W*1C2024 02 19.18108609 47 43.951+16 56 40.70         19.76GVED074G96
     K24D00W 1C2024 02 19.18618309 47 44.765+16 56 45.92         20.22GVED074G96
     K24D00W 1C2024 02 19.19127409 47 45.532+16 56 51.36         19.46GVED074G96
     K24D00W 1C2024 02 19.19637409 47 46.259+16 56 57.08         19.63GVED074G96
     K24D00W KC2024 02 19.32197509 48 03.395+16 58 54.37         19.53GVED074I52
     K24D00W KC2024 02 19.33609309 48 05.332+16 59 05.46         19.97GVED074I52
     K24D00W KC2024 02 19.35018309 48 07.319+16 59 15.94         19.71GVED074I52
     K24D00W KC2024 02 19.36439409 48 09.392+16 59 26.16         20.02GVED074I52
     K24D00W  C2024 02 19.43517509 48 20.526+16 59 59.42         19.8 GVED074H01
     K24D00W  C2024 02 19.43955709 48 21.370+17 00 01.81         19.6 GVED074H01
     K24D00W  C2024 02 19.44967309 48 23.370+17 00 07.08         19.8 GVED074H01
     K24D00W  C2024 02 19.45728809 48 24.925+17 00 11.02         19.6 GVED074H01
     K24D00W KC2024 02 19.70048 09 50 09.38 +17 05 24.7          19.3 rZED074C97
     K24D00W KC2024 02 19.70794 09 50 11.19 +17 05 35.9          18.8 rZED074C97
     K24D00W KC2024 02 19.71534 09 50 12.92 +17 05 47.6          19.2 rZED074C97
     K24D00W KC2024 02 19.72276 09 50 14.68 +17 05 59.3          19.0 rZED074C97
     K24D00W KC2024 02 19.82974609 50 51.33 +17 06 01.2                VED074104
     K24D00W KC2024 02 19.83844209 50 53.91 +17 06 14.7          18.9 GVED074104
     K24D00W KC2024 02 19.85041809 50 56.44 +17 06 25.9          19.6 GXED074595
     K24D00W KC2024 02 19.85293409 50 58.16 +17 06 36.3          18.9 GVED074104
     K24D00W KC2024 02 19.85937109 50 59.03 +17 06 39.1          19.7 GXED074595
     K24D00W KC2024 02 19.86793309 51 01.50 +17 06 51.8          19.5 GXED074595
     K24D00W KC2024 02 19.87126009 51 03.538+17 07 05.23         19.2 GVED074K63
     K24D00W KC2024 02 19.88254509 51 06.789+17 07 21.99         18.5 GVED074K63

Observer details:
104 San Marcello Pistoiese.  Observers P. Bacci, M. Maestripieri.  Measurers
    P. Bacci, L. Tesi, G. Fagioli.  0.60-m F4 Reflector + CCD.
595 Farra d'Isonzo.  Observer E. Pettarin.  0.61-m f/4.5 reflector + CCD.
C97 Al-Fulaij Observatory, Oman.  Observers A. Al-Haji, N. Al-Umairi, A. Al-
    Ruqaishi.  0.61-m f/7.8 reflector + CCD.
G96 Mt. Lemmon Survey.  Observers T. Beuden, G. J. Leonard.  Measurers T.
    Beuden, V. F. Carvajal, D. Fay, J. B. Fazekas, D. C. Fuls, A. R. Gibbs, A.
    D. Grauer, H. Groeller, J. K. Hogan, R. A. Kowalski, S. M. Larson, G. J.
    Leonard, D. Rankin, R. L. Seaman, F. C. Shelly, K. W. Wierzchos.  1.5-m
    reflector + 10K CCD.
H01 Magdalena Ridge Observatory, Socorro.  Observers W. H. Ryan, E. V. Ryan.
    Measurer W. H. Ryan.  2.4-m f/8.9 Ritchey-Chretien + CCD.
I52 Steward Observatory, Mt. Lemmon Station.  Observer J. B. Fazekas.
    Measurers E. C. Beshore, D. Fay, J. B. Fazekas, D. C. Fuls, A. R. Gibbs,
    A. D. Grauer, H. Groeller, J. K. Hogan, R. A. Kowalski, S. M. Larson, G.
    J. Leonard, D. Rankin, R. L. Seaman, F. C. Shelly, K. W. Wierzchos.  1.0-m
    prime focus + CCD.
K63 G. Pascoli Observatory, Castelvecchio Pascoli.  Observer R. Bacci.  0.41-m
    f/3.75 Reflector + CCD.

Orbital elements:
2024 DW                                                  Earth MOID = 0.0008 AU
Epoch 2024 Mar. 31.0 TT = JDT 2460400.5                 Veres                   
M 359.00970              (2000.0)            P               Q                  
n   0.27045749     Peri.  245.87063     -0.75578940     +0.65475698             
a   2.3681182      Node   335.02782     -0.59305217     -0.69007515             
e   0.6892109      Incl.    1.18078     -0.27761757     -0.30836600             
P   3.64           H   27.03          G   0.15           U   8                  
Residuals in seconds of arc
240219 G96  0.4-  0.2+    240219 H01  0.0   0.1-    240219 104  0.4-  0.1-
240219 G96  0.2+  0.1-    240219 H01  0.0   0.0     240219 104  0.3-  0.0
240219 G96  0.3+  0.0     240219 H01  0.0   0.1-    240219 595  0.5+  0.2+
240219 G96  0.1-  0.3+    240219 H01  0.0   0.1-    240219 104  0.1-  0.7-
240219 I52  0.0   0.1-    240219 C97  0.9+  0.1-    240219 595  0.5+  0.0
240219 I52  0.1-  0.0     240219 C97  1.0+  0.4-    240219 595  0.6+  0.0
240219 I52  0.1-  0.1-    240219 C97  0.5+  0.1-    240219 K63  0.1-  0.7+
240219 I52  0.1+  0.1-    240219 C97  0.7+  0.3+    240219 K63  0.2+  0.5+

Ephemeris:
2024 DW                  a,e,i = 2.37, 0.69, 1                   q = 0.7360
Date    TT    R. A. (2000) Decl.     Delta      r    Elong.  Phase     V
2024 01 20    09 34 54.9 +16 17 49   0.3728  1.3374   158.3    15.8    26.4
...
2024 02 04    09 38 28.3 +16 17 01   0.1931  1.1774   172.5     6.3    24.3
...
2024 02 12    09 39 55.2 +16 26 10   0.1061  1.0930   177.6     2.2    22.6
...
2024 02 18    09 44 23.9 +16 46 36   0.04329 1.0312   173.5     6.2    20.8
2024 02 19    09 46 54.1 +16 55 57   0.03295 1.0211   172.9     6.9    20.2
2024 02 20    09 51 44.3 +17 13 01   0.02263 1.0110   172.6     7.3    19.4
...
2024 02 26    21 30 08.8 -15 53 52   0.03942 0.9522    16.8   162.5    31.8
...
2024 03 05    21 37 36.5 -16 06 59   0.1235  0.8797    23.2   153.6    31.4
...
2024 03 20    21 49 01.4 -15 11 42   0.2936  0.7749    35.3   132.1    29.7

M. P. C. Staff               (C) Copyright 2024 MPC           M.P.E.C. 2024-D74





More information about the Iaude mailing list